Terug naar catalogus

CZ-4 DEB

ActiefPO
NORAD 26235·DEBRIS·🇨🇳 China

Gelanceerd Oct 14, 1999 vanaf Taiyuan Satellite Launch Center

Loading…

Volgende Passages (komende 24 uur)

TLE

VerouderendSource: Space-Track

Epoch: Sep 8, 2026, 07:09 UTC

1 26235U 99057DZ  26251.29839465  .06849019  30674-5  39932-2 0  9990
2 26235  98.4609  95.1295 0009610 284.4887  75.5331 16.18679124417522

Volg CZ-4 DEB in realtime met AllMySat

Download on the App Store